Weather History for Centralia, IL

Change the Weather History Date:

Tuesday, July 2, 2013

  Actual Average (KSLO) Record (KSLO)
Temperature  
Mean Temperature 66 °F -  
Max Temperature 68 °F 88 °F 97 °F (1970)
Min Temperature 65 °F 66 °F 50 °F (1988)
Cooling Degree Days 2    
Growing Degree Days 16 (Base 50)    
Moisture  
Dew Point 65 °F    
Average Humidity 91    
Maximum Humidity 93    
Minimum Humidity 87    
Precipitation  
Precipitation 2.14 in - - ()
Sea Level Pressure  
Sea Level Pressure 29.96 in    
Wind  
Wind Speed 8 mph (North)    
Max Wind Speed 13 mph    
Max Gust Speed 17 mph    
Visibility 6 miles    
Events Rain , Thunderstorm    
Averages and records for this station are not official NWS values.
T = Trace of Precipitation, MM = Missing Value Source: NWS Daily Summary

Daily Weather History Graph

Daily Weather History Graph

Search for Another Location

Airport:

Trip Planner

Search our weather history database for the weather conditions in past years. The results will help you decide how hot, cold, wet, or windy it might be!

Date:

Astronomy

Jul. 02, 2013 Rise Set
Actual Time 5:36 AM CDT 8:24 PM CDT
Civil Twilight 5:04 AM CDT 8:55 PM CDT
Nautical Twilight 4:25 AM CDT 9:35 PM CDT
Astronomical Twilight 3:40 AM CDT 10:20 PM CDT
Moon 1:36 AM CDT (7/2) 3:39 PM CDT (7/2)
Length of Visible Light 15h 50m
Length of Day
14h 47m
Waning Crescent, 26% of the Moon is Illuminated
Jul 2
Waning Crescent
Jul 8
New
Jul 15
First Quarter
Jul 22
Full
Jul 29
Last Quarter

Hourly Weather History & Observations

Time (CDT) Temp. Dew Point Humidity Pressure Visibility Wind Dir Wind Speed Gust Speed Precip Events Conditions
12:15 AM 67.6 °F 64.9 °F 91% 29.94 in 7.0 mi North 9.2 mph - 0.02 in Rain Light Rain
12:35 AM 67.6 °F 65.3 °F 92% 29.94 in 5.0 mi North 8.1 mph - 0.05 in Rain Light Rain
12:55 AM 67.8 °F 65.1 °F 91% 29.93 in 5.0 mi North 8.1 mph - 0.08 in Rain Heavy Rain
1:15 AM 67.6 °F 65.3 °F 92% 29.93 in 2.5 mi North 9.2 mph 17.3 mph 0.17 in Rain Heavy Rain
1:35 AM 67.6 °F 65.3 °F 92% 29.92 in 4.0 mi North 9.2 mph - 0.30 in Rain Heavy Rain
1:55 AM 67.6 °F 65.1 °F 92% 29.92 in 7.0 mi North 9.2 mph - 0.34 in Rain Rain
2:15 AM 67.6 °F 64.9 °F 91% 29.92 in 7.0 mi North 9.2 mph - 0.01 in Rain Light Rain
2:35 AM 67.5 °F 64.8 °F 91% 29.91 in 7.0 mi North 9.2 mph - 0.01 in Rain Light Rain
2:55 AM 67.3 °F 64.8 °F 92% 29.91 in 7.0 mi North 6.9 mph - 0.02 in   Drizzle
3:15 AM 67.1 °F 64.6 °F 92% 29.91 in 7.0 mi North 6.9 mph - 0.04 in Rain Rain
3:35 AM 67.1 °F 64.6 °F 92% 29.92 in 4.0 mi North 8.1 mph - 0.12 in Rain Heavy Rain
3:55 AM 66.6 °F 64.4 °F 93% 29.91 in 2.5 mi North 6.9 mph - 0.35 in Rain Heavy Rain
4:15 AM 66.6 °F 64.2 °F 92% 29.92 in 5.0 mi North 8.1 mph - 0.04 in Rain Rain
4:35 AM 66.6 °F 64.4 °F 93% 29.92 in 5.0 mi North 5.8 mph - 0.10 in Rain Rain
4:55 AM 66.7 °F 64.6 °F 93% 29.92 in 5.0 mi North 5.8 mph - 0.14 in Rain Rain
5:15 AM 66.7 °F 64.6 °F 93% 29.92 in 5.0 mi North 5.8 mph - 0.03 in Rain Rain
5:35 AM 66.7 °F 64.6 °F 93% 29.92 in 4.0 mi North 8.1 mph - 0.08 in Rain Heavy Rain
5:55 AM 66.9 °F 64.8 °F 93% 29.93 in 4.0 mi NNE 6.9 mph - 0.13 in Rain Rain
6:15 AM 66.9 °F 64.6 °F 92% 29.93 in 4.0 mi North 6.9 mph - 0.04 in Rain Rain
6:35 AM 66.7 °F 64.4 °F 92% 29.93 in 4.0 mi North 5.8 mph - 0.10 in Rain Rain
6:55 AM 66.7 °F 64.4 °F 92% 29.94 in 3.0 mi North 4.6 mph - 0.14 in Rain Rain
7:15 AM 66.6 °F 64.4 °F 93% 29.94 in 2.5 mi North 8.1 mph - 0.04 in Rain Heavy Rain
7:35 AM 66.4 °F 64.0 °F 92% 29.95 in 2.0 mi North 6.9 mph - 0.13 in Rain Heavy Rain
7:55 AM 66.2 °F 63.9 °F 92% 29.95 in 2.0 mi North 8.1 mph - 0.25 in Rain Rain
8:15 AM 66.0 °F 63.7 °F 92% 29.95 in 3.0 mi North 9.2 mph - 0.05 in Rain Rain
8:35 AM 65.7 °F 63.5 °F 93% 29.95 in 2.5 mi North 9.2 mph - 0.15 in Rain Heavy Rain
8:55 AM 65.5 °F 63.1 °F 92% 29.95 in 2.0 mi North 9.2 mph 16.1 mph 0.26 in Rain Heavy Rain
9:15 AM 65.5 °F 63.3 °F 93% 29.95 in 3.0 mi North 10.4 mph - 0.01 in Rain Rain
9:35 AM 65.5 °F 63.3 °F 93% 29.95 in 1.2 mi North 9.2 mph - 0.23 in Rain Heavy Rain
9:55 AM 65.7 °F 63.5 °F 93% 29.95 in 4.0 mi North 10.4 mph - 0.27 in Rain , Thunderstorm Rain
10:15 AM 65.8 °F 63.5 °F 92% 29.96 in 3.0 mi North 5.8 mph - 0.04 in Rain Rain
10:35 AM 66.2 °F 63.9 °F 92% 29.96 in 5.0 mi North 4.6 mph - 0.04 in Rain Light Rain
10:55 AM 66.2 °F 63.7 °F 92% 29.97 in 5.0 mi North 6.9 mph - 0.04 in   Scattered Clouds
11:15 AM 66.4 °F 63.9 °F 92% 29.97 in 5.0 mi North 6.9 mph - N/A   Scattered Clouds
11:35 AM 67.1 °F 64.4 °F 91% 29.97 in 4.0 mi North 6.9 mph - N/A Rain Rain
11:55 AM 67.1 °F 64.6 °F 92% 29.97 in 3.0 mi North 8.1 mph - 0.01 in Rain Light Rain
12:15 PM 67.3 °F 64.6 °F 91% 29.97 in 4.0 mi North 9.2 mph - N/A   Light Drizzle
12:35 PM 67.3 °F 64.6 °F 91% 29.97 in 5.0 mi North 11.5 mph 16.1 mph N/A   Clear
12:55 PM 67.3 °F 64.6 °F 91% 29.97 in 5.0 mi North 10.4 mph - N/A   Scattered Clouds
1:15 PM 66.7 °F 64.0 °F 91% 29.97 in 5.0 mi North 10.4 mph - N/A   Mostly Cloudy
1:35 PM 66.7 °F 64.4 °F 92% 29.97 in 5.0 mi North 8.1 mph - N/A   Drizzle
1:55 PM 67.1 °F 64.4 °F 91% 29.97 in 4.0 mi North 10.4 mph 17.3 mph 0.01 in Rain Rain
2:15 PM 67.5 °F 64.8 °F 91% 29.98 in 4.0 mi North 9.2 mph - 0.03 in Rain Rain
2:35 PM 67.6 °F 64.9 °F 91% 29.98 in 5.0 mi North 9.2 mph - 0.05 in Rain Rain
2:55 PM 68.0 °F 64.9 °F 90% 29.98 in 5.0 mi North 11.5 mph - 0.06 in Rain Rain
3:15 PM 68.0 °F 64.9 °F 90% 29.97 in 5.0 mi North 10.4 mph 16.1 mph 0.01 in Rain Light Rain
3:35 PM 68.0 °F 65.1 °F 90% 29.97 in 4.0 mi North 10.4 mph 16.1 mph 0.03 in Rain Light Rain
3:55 PM 68.7 °F 65.5 °F 89% 29.98 in 5.0 mi North 9.2 mph 17.3 mph 0.04 in Rain Light Rain
4:15 PM 68.5 °F 65.3 °F 89% 29.98 in 7.0 mi North 12.7 mph - N/A   Light Drizzle
4:35 PM 68.4 °F 65.3 °F 90% 29.98 in 7.0 mi North 9.2 mph - N/A   Clear
4:55 PM 68.2 °F 64.9 °F 89% 29.98 in 7.0 mi North 10.4 mph - N/A   Clear
5:15 PM 68.7 °F 64.8 °F 87% 29.98 in 7.0 mi North 9.2 mph 16.1 mph N/A   Clear
5:35 PM 68.9 °F 64.8 °F 87% 29.98 in 7.0 mi North 6.9 mph - N/A   Clear
5:55 PM 68.4 °F 64.4 °F 87% 29.98 in 7.0 mi North 6.9 mph - N/A   Clear
6:15 PM 68.5 °F 64.6 °F 87% 29.99 in 7.0 mi North 6.9 mph - N/A   Clear
6:35 PM 68.4 °F 64.4 °F 87% 29.99 in 7.0 mi North 8.1 mph - N/A   Clear
6:55 PM 68.4 °F 64.6 °F 88% 30.00 in 10.0 mi North 5.8 mph - N/A   Clear
7:15 PM 68.4 °F 64.8 °F 88% 30.00 in 10.0 mi North 4.6 mph - N/A   Clear
7:35 PM 68.4 °F 64.6 °F 88% 30.00 in 10.0 mi North 4.6 mph - N/A   Clear
7:55 PM 68.4 °F 64.8 °F 88% 30.00 in 10.0 mi North 4.6 mph - N/A   Clear
8:15 PM 68.4 °F 64.9 °F 89% 30.00 in 10.0 mi North 4.6 mph - N/A   Clear
8:35 PM 68.4 °F 64.9 °F 89% 30.00 in 10.0 mi NNW 4.6 mph - N/A   Clear
8:55 PM 68.4 °F 64.9 °F 89% 30.00 in 10.0 mi NW 3.5 mph - N/A   Clear
9:15 PM 68.4 °F 65.3 °F 90% 30.01 in 10.0 mi Calm Calm - N/A   Clear
9:35 PM 68.4 °F 65.3 °F 90% 30.02 in 10.0 mi Calm Calm - N/A   Clear
9:55 PM 68.4 °F 65.3 °F 90% 30.02 in 10.0 mi Calm Calm - N/A   Clear
10:15 PM 68.2 °F 65.3 °F 90% 30.02 in 7.0 mi NW 3.5 mph - N/A   Clear
10:35 PM 68.4 °F 65.3 °F 90% 30.02 in 5.0 mi NNW 3.5 mph - N/A   Clear
10:55 PM 68.2 °F 65.3 °F 90% 30.02 in 5.0 mi Calm Calm - N/A   Clear
11:15 PM 68.2 °F 65.5 °F 91% 30.03 in 4.0 mi NNW 3.5 mph - N/A   Clear
11:35 PM 68.2 °F 65.5 °F 91% 30.03 in 4.0 mi NNW 3.5 mph - N/A Rain Light Rain
11:55 PM 68.2 °F 65.3 °F 90% 30.03 in 7.0 mi NNW 4.6 mph - N/A   Clear